Weather Roundup
Issued by NWS Corpus Christi, TX

Home | Current Version | Previous Version | Text Only | Print | Product List | Glossary On
Versions: 1 2 3 4 5 6 7 8 9 10 11 12 13 14 15 16 17 18 19 20 21 22 23 24 25 26 27 28 29 30 31 32 33 34 35 36 37 38 39 40 41 42 43 44 45 46 47 48 49 50
000
ASUS44 KCRP 270510
HRRCRP

SOUTH TEXAS REGIONAL WEATHER ROUNDUP
NATIONAL WEATHER SERVICE CORPUS CHRISTI TX
1100 PM CST FRI DEC 26 2014


TXZ229>244-270600-
...CORPUS CHRISTI AREA OBSERVATIONS...

CITY           SKY/WX    TMP DP  RH WIND       PRES   REMARKS
CORPUS CHRISTI MOCLDY    67  65  93 SE13      29.94S
NAS CORPUS CHR PTCLDY    68  67  96 S10       29.95S
ROCKPORT       PTCLDY    66  65  96 SE9       29.96S FOG
KINGSVILLE NAS MOCLDY    66  66 100 SE10      29.93S
ALICE          PTCLDY    63  61  93 SE7       29.92S FOG
FALFURRIAS     PTCLDY    65  61  86 SE7       29.92S
$$

...VICTORIA AREA OBSERVATIONS...

CITY           SKY/WX    TMP DP  RH WIND       PRES   REMARKS
VICTORIA       CLOUDY    68  66  93 SE9       29.97S FOG
BEEVILLE       FAIR      65  65 100 SE10      29.95R FOG
PLEASANTON     PTCLDY    63  62  97 SE3       29.93S FOG
SAN ANTONIO    CLOUDY    64  62  93 E5        29.95S
$$

...LAREDO AREA OBSERVATIONS...

CITY           SKY/WX    TMP DP  RH WIND       PRES   REMARKS
LAREDO         CLEAR     61  54  77 SE5       29.92R
DEL RIO        CLOUDY    52  45  77 NW8       29.91R
MCALLEN        CLEAR     66  61  84 SE13      29.91F
HEBBRONVILLE   MOCLDY    61  59  93 SE5       29.92S FOG
$$

...OTHER TEXAS OBSERVATIONS...

CITY           SKY/WX    TMP DP  RH WIND       PRES   REMARKS
BROWNSVILLE    CLOUDY    68  66  93 S6        29.95R FOG
HOUSTON        CLOUDY    66  64  93 E8        30.00F
COL. STATION   CLOUDY    66  64  93 SE6       29.99R
AUSTIN         CLOUDY    65  63  93 S8        29.96R
WACO           CLOUDY    64  63  96 S12       29.96S
FORT WORTH     MOCLDY    62  61  96 E6        29.97S
WICHITA FALLS  MOCLDY    42  33  70 N21       30.09R
LUBBOCK        FLURRIES  33  29  85 N15       30.07S WCI  23
EL PASO        CLOUDY    37  34  89 S14       30.04R WCI  28
$$

...MARINE OBSERVATIONS...

STATION/POSITION TIME  SKY/WX   TEMP    WIND        PRES    VSBY  WAVE   SWELL
                                AIR SEA DIR/SP/G                  HT/PER HT/PER
                 (UTC)          (F)     (DEG/KT/KT) (MB)    (MI)  (FT/S) (FT/S)
PORT ARANSAS     0500            67 63  130/ 14/ 15 1014.5F
BUOY 90 E PORT A 0500            73 72  150/ 17/ 21 1015.8F         6/ 8   2/12
BUOY 45 SE BAFFI 0500            72 72  150/ 12/ 16 1014.2S         6/ 8   5/ 8
BUOY 200 E PT IS 0500            74 74  140/ 14/ 16 1016.4R         4/ 6   2/12
BUOY 15 E GALVES 0500            64 61  120/ 12/ 14 1016.3S         5/ 8   3/ 8
$$



USA.gov is the U.S. government's official web portal to all federal, state and local government web resources and services.